• en France
  • Liste des pays
  • À 7 jours
  • Température de l'eau
  • Carte satellitaire
  • Carte météo
  • Widgets météo
  • user-avatar
    Se connecter

    Météo par heure à Urchiab

    Ce jour, 19 Octobre, Vendredi

    Heure Température Précipitation Vent Pression Humidité
    00:00 +9°C° 0 mm 2 m/s 660 mmHg 63%
    01:00 +9°C° 0 mm 2 m/s 660 mmHg 59%
    02:00 +9°C° 0 mm 2 m/s 660 mmHg 55%
    03:00 +9°C° 0 mm 2 m/s 660 mmHg 51%
    04:00 +8°C° 0 mm 2 m/s 660 mmHg 48%
    05:00 +8°C° 0 mm 2 m/s 660 mmHg 46%
    06:00 +8°C° 0 mm 2 m/s 659 mmHg 43%
    07:00 +10°C° 0 mm 2 m/s 660 mmHg 39%
    08:00 +14°C° 0 mm 2 m/s 661 mmHg 34%
    09:00 +16°C° 0 mm 2 m/s 661 mmHg 30%
    10:00 +17°C° 0 mm 2 m/s 661 mmHg 30%
    11:00 +18°C° 0 mm 3 m/s 661 mmHg 30%
    12:00 +19°C° 0 mm 3 m/s 661 mmHg 30%
    13:00 +19°C° 0 mm 3 m/s 661 mmHg 35%
    14:00 +18°C° 0 mm 3 m/s 661 mmHg 39%
    15:00 +18°C° 0 mm 3 m/s 661 mmHg 44%
    16:00 +16°C° 0 mm 3 m/s 660 mmHg 54%
    17:00 +14°C° 0 mm 2 m/s 660 mmHg 65%
    18:00 +12°C° 0 mm 2 m/s 659 mmHg 75%
    19:00 +12°C° 0 mm 2 m/s 659 mmHg 73%
    20:00 +12°C° 0 mm 2 m/s 659 mmHg 71%
    21:00 +10°C° 0 mm 2 m/s 659 mmHg 69%
    22:00 +10°C° 0 mm 2 m/s 659 mmHg 67%
    23:00 +10°C° 0 mm 3 m/s 659 mmHg 65%

    Demain, 20 Octobre, Samedi

    Heure Température Précipitation Vent Pression Humidité
    00:00 +10°C° 0 mm 3 m/s 658 mmHg 64%
    01:00 +10°C° 0 mm 3 m/s 658 mmHg 63%
    02:00 +9°C° 0 mm 2 m/s 658 mmHg 63%
    03:00 +9°C° 0 mm 2 m/s 658 mmHg 62%
    04:00 +9°C° 0 mm 2 m/s 657 mmHg 60%
    05:00 +9°C° 0 mm 2 m/s 657 mmHg 59%
    06:00 +9°C° 0 mm 2 m/s 657 mmHg 57%
    07:00 +12°C° 0 mm 2 m/s 658 mmHg 50%
    08:00 +14°C° 0 mm 2 m/s 658 mmHg 42%
    09:00 +18°C° 0 mm 1 m/s 659 mmHg 35%
    10:00 +18°C° 0 mm 2 m/s 659 mmHg 34%
    11:00 +18°C° 0 mm 2 m/s 659 mmHg 33%
    12:00 +19°C° 0 mm 2 m/s 659 mmHg 33%
    13:00 +19°C° 0 mm 2 m/s 659 mmHg 36%
    14:00 +19°C° 0 mm 2 m/s 658 mmHg 39%
    15:00 +18°C° 0 mm 2 m/s 658 mmHg 42%
    16:00 +17°C° 0 mm 2 m/s 658 mmHg 51%
    17:00 +15°C° 0 mm 1 m/s 657 mmHg 60%
    18:00 +13°C° 0 mm 1 m/s 657 mmHg 69%
    19:00 +13°C° 0 mm 1 m/s 657 mmHg 66%
    20:00 +12°C° 0 mm 1 m/s 657 mmHg 63%
    21:00 +12°C° 0 mm 1 m/s 657 mmHg 61%
    22:00 +12°C° 0 mm 1 m/s 657 mmHg 58%
    23:00 +12°C° 0 mm 1 m/s 657 mmHg 55%

    Après-demain, 21 Octobre, Dimanche

    Heure Température Précipitation Vent Pression Humidité
    00:00 +12°C° 0 mm 1 m/s 657 mmHg 53%
    01:00 +11°C° 0 mm 1 m/s 656 mmHg 52%
    02:00 +11°C° 0 mm 1 m/s 656 mmHg 51%
    03:00 +11°C° 0 mm 1 m/s 656 mmHg 50%
    04:00 +11°C° 0 mm 1 m/s 656 mmHg 49%
    05:00 +11°C° 0 mm 1 m/s 656 mmHg 48%
    06:00 +11°C° 0 mm 1 m/s 656 mmHg 47%
    07:00 +13°C° 0 mm 1 m/s 656 mmHg 42%
    08:00 +15°C° 0 mm 1 m/s 657 mmHg 38%
    09:00 +16°C° 0 mm 0 m/s 658 mmHg 34%
    10:00 +19°C° 0 mm 1 m/s 658 mmHg 34%
    11:00 +19°C° 0 mm 1 m/s 658 mmHg 34%
    12:00 +19°C° 0 mm 2 m/s 658 mmHg 35%
    13:00 +19°C° 0 mm 2 m/s 658 mmHg 38%
    14:00 +18°C° 0 mm 2 m/s 657 mmHg 42%
    15:00 +18°C° 0 mm 2 m/s 657 mmHg 46%
    16:00 +16°C° 0 mm 2 m/s 657 mmHg 54%
    17:00 +15°C° 0 mm 1 m/s 656 mmHg 62%
    18:00 +13°C° 0 mm 1 m/s 656 mmHg 71%
    19:00 +13°C° 0 mm 1 m/s 656 mmHg 70%
    20:00 +13°C° 0 mm 1 m/s 656 mmHg 70%
    21:00 +13°C° 0 mm 1 m/s 656 mmHg 69%
    22:00 +12°C° 0 mm 1 m/s 656 mmHg 68%
    23:00 +12°C° 0 mm 1 m/s 656 mmHg 67%

    22 Octobre, Lundi

    Heure Température Précipitation Vent Pression Humidité
    00:00 +12°C° 0 mm 1 m/s 655 mmHg 66%
    01:00 +12°C° 0 mm 1 m/s 655 mmHg 65%
    02:00 +11°C° 0 mm 1 m/s 655 mmHg 65%
    03:00 +11°C° 0 mm 1 m/s 655 mmHg 65%
    04:00 +11°C° 0 mm 1 m/s 655 mmHg 63%
    05:00 +11°C° 0 mm 1 m/s 655 mmHg 62%
    06:00 +11°C° 0 mm 1 m/s 655 mmHg 61%
    07:00 +13°C° 0 mm 1 m/s 655 mmHg 56%
    08:00 +14°C° 0 mm 1 m/s 656 mmHg 51%
    09:00 +16°C° 0 mm 1 m/s 656 mmHg 46%
    10:00 +18°C° 0 mm 1 m/s 656 mmHg 45%
    11:00 +18°C° 0 mm 2 m/s 657 mmHg 45%
    12:00 +19°C° 0 mm 2 m/s 657 mmHg 44%
    13:00 +18°C° 0 mm 2 m/s 656 mmHg 47%
    14:00 +18°C° 0 mm 2 m/s 656 mmHg 50%
    15:00 +18°C° 0 mm 2 m/s 656 mmHg 54%
    16:00 +16°C° 0.1 mm 2 m/s 656 mmHg 63%
    17:00 +14°C° 0.1 mm 1 m/s 656 mmHg 72%
    18:00 +13°C° 0.1 mm 1 m/s 656 mmHg 81%
    19:00 +13°C° 0.1 mm 1 m/s 656 mmHg 81%
    20:00 +13°C° 0.1 mm 1 m/s 656 mmHg 82%
    21:00 +12°C° 0.1 mm 1 m/s 656 mmHg 82%
    22:00 +12°C° 0.1 mm 1 m/s 656 mmHg 83%
    23:00 +12°C° 0.1 mm 1 m/s 656 mmHg 83%

    23 Octobre, Mardi

    Heure Température Précipitation Vent Pression Humidité
    00:00 +11°C° 0.1 mm 0 m/s 656 mmHg 83%
    01:00 +11°C° 0 mm 1 m/s 656 mmHg 81%
    02:00 +11°C° 0 mm 1 m/s 656 mmHg 79%
    03:00 +11°C° 0 mm 1 m/s 656 mmHg 78%
    04:00 +11°C° 0 mm 1 m/s 656 mmHg 75%
    05:00 +10°C° 0 mm 1 m/s 656 mmHg 73%
    06:00 +10°C° 0 mm 1 m/s 656 mmHg 70%
    07:00 +12°C° 0 mm 1 m/s 657 mmHg 63%
    08:00 +14°C° 0 mm 1 m/s 657 mmHg 56%
    09:00 +16°C° 0 mm 1 m/s 658 mmHg 49%
    10:00 +18°C° 0 mm 1 m/s 658 mmHg 47%
    11:00 +18°C° 0 mm 2 m/s 658 mmHg 45%
    12:00 +19°C° 0 mm 2 m/s 658 mmHg 43%
    13:00 +19°C° 0 mm 2 m/s 657 mmHg 44%
    14:00 +19°C° 0 mm 2 m/s 657 mmHg 46%
    15:00 +18°C° 0 mm 2 m/s 657 mmHg 47%
    16:00 +17°C° 0 mm 2 m/s 657 mmHg 53%
    17:00 +15°C° 0 mm 2 m/s 656 mmHg 60%
    18:00 +13°C° 0 mm 1 m/s 656 mmHg 66%
    19:00 +13°C° 0 mm 2 m/s 656 mmHg 64%
    20:00 +13°C° 0 mm 2 m/s 656 mmHg 61%
    21:00 +13°C° 0 mm 2 m/s 656 mmHg 59%
    22:00 +13°C° 0 mm 2 m/s 656 mmHg 59%
    23:00 +13°C° 0 mm 2 m/s 655 mmHg 59%

    24 Octobre, Mercredi

    Heure Température Précipitation Vent Pression Humidité
    00:00 +12°C° 0 mm 2 m/s 655 mmHg 59%
    01:00 +12°C° 0 mm 2 m/s 655 mmHg 59%
    02:00 +12°C° 0 mm 2 m/s 655 mmHg 60%
    03:00 +12°C° 0 mm 2 m/s 654 mmHg 60%
    04:00 +12°C° 0 mm 2 m/s 654 mmHg 60%
    05:00 +12°C° 0 mm 2 m/s 654 mmHg 61%
    06:00 +10°C° 0 mm 2 m/s 654 mmHg 61%
    07:00 +13°C° 0 mm 2 m/s 654 mmHg 55%
    08:00 +16°C° 0 mm 2 m/s 655 mmHg 49%
    09:00 +18°C° 0 mm 2 m/s 655 mmHg 43%
    10:00 +19°C° 0 mm 2 m/s 655 mmHg 41%
    11:00 +20°C° 0 mm 2 m/s 655 mmHg 38%
    12:00 +21°C° 0 mm 3 m/s 654 mmHg 35%
    13:00 +21°C° 0 mm 3 m/s 654 mmHg 36%
    14:00 +21°C° 0 mm 3 m/s 653 mmHg 37%
    15:00 +20°C° 0 mm 3 m/s 653 mmHg 39%
    16:00 +19°C° 0 mm 3 m/s 652 mmHg 44%
    17:00 +17°C° 0 mm 3 m/s 651 mmHg 49%
    18:00 +16°C° 0 mm 2 m/s 651 mmHg 54%
    19:00 +16°C° 0 mm 3 m/s 651 mmHg 54%
    20:00 +14°C° 0 mm 3 m/s 650 mmHg 53%
    21:00 +14°C° 0 mm 3 m/s 650 mmHg 53%
    22:00 +14°C° 0 mm 3 m/s 650 mmHg 52%
    23:00 +14°C° 0 mm 3 m/s 649 mmHg 51%
    Voir plus